[[{"header":{"parameterUnit":"m.s-1","parameterCategory":1,"la1":30.2991,"la2":30.254,"lo1":-89.0895,"lo2":-89.0444,"dy":0.0017,"dx":0.0017,"nx":28,"ny":28,"refTime":"2024-06-15T09:00:00:Z","depth":0,"parameterNumber":2,"parameterNumberName":"U-component_of_WINDS"},"data":[0,0,0,0,0,0,0,0,0,0,0,0,0,0,0,0,0,0,0,0,0,0,0,0,0,0,0,0,0,0,0,0,0,0,0,0,0,0,0,0,0,0,0,0,0,0,0,0,0,0,0,0,0,0,0,0,0,0,-4.9002,-4.9003,0,-4.9077,-4.9078,-4.9078,-4.9038,-4.9036,-4.9034,-4.9032,-4.9106,-4.911,-4.9114,0,0,0,0,0,0,0,0,0,0,0,0,0,-4.8825,-4.8828,-4.9002,-4.9003,-4.9004,-4.9077,-4.9078,-4.9079,-4.9038,-4.9036,-4.9033,-4.9031,-4.9105,-4.911,-4.9114,0,0,0,0,0,0,0,0,0,0,0,0,0,-4.8901,-4.883,-4.9002,-4.8993,-4.8993,-4.9076,-4.9078,-4.9079,-4.9039,-4.9036,-4.9033,-4.903,-4.9104,-4.9109,-4.9115,-4.9211,0,0,-4.9133,-4.9135,0,0,0,0,0,0,0,0,-4.8897,-4.8907,-4.8993,-4.8994,-4.8994,-4.9045,-4.9042,-4.9123,-4.904,-4.9021,-4.9032,-4.9029,-4.9088,-4.9095,-4.9116,-4.9215,-4.9218,-4.9133,-4.9137,-4.9139,-4.9141,0,0,0,0,0,0,0,-4.8891,-4.8904,-4.9032,-4.8995,-4.8995,-4.8985,-4.8992,-4.9057,-4.9071,-4.9023,-4.902,-4.9029,-4.9088,-4.911,-4.9117,-4.9219,-4.9133,-4.9138,-4.9142,-4.9144,-4.94,-4.9404,0,0,0,0,0,0,-4.8887,-4.89,-4.9029,-4.9034,-4.8937,-4.8991,-4.8999,-4.9032,-4.907,-4.9073,-4.9032,-4.9027,-4.9102,-4.911,-4.912,-4.9233,-4.9139,-4.9145,-4.9148,-4.9397,-4.9401,-4.9405,0,0,0,0,0,0,-4.8883,-4.8899,-4.9026,-4.8966,-4.8982,-4.8997,-4.9034,-4.9035,-4.9057,-4.9077,-4.9079,-4.9052,-4.91,-4.9111,-4.9189,-4.9235,-4.9147,-4.9152,-4.9393,-4.9398,-4.9403,-4.9462,0,0,0,0,0,0,-4.8878,-4.8898,-4.8934,-4.8967,-4.8985,-4.9094,-4.9037,-4.9038,-4.9067,-4.9062,-4.9097,-4.9099,-4.9098,-4.918,-4.9195,-4.9241,-4.9157,-4.9389,-4.9395,-4.9401,-4.9456,-4.9468,-4.9479,0,0,0,0,0,-4.8872,-4.8948,-4.8936,-4.8952,-4.9031,-4.9097,-4.9107,-4.9105,-4.9071,-4.9108,-4.9121,-4.9098,-4.9229,-4.9189,-4.9204,-4.9254,-4.9386,-4.9394,-4.9401,-4.945,-4.9466,-4.9479,0,0,0,0,0,0,-4.8918,-4.8952,-4.8939,-4.9028,-4.906,-4.909,-4.9136,-4.9121,-4.9163,-4.9156,-4.9151,-4.9159,-4.9239,-4.9255,-4.9209,-4.9349,-4.9302,-4.9313,-4.9334,-4.9349,-4.9361,-4.9353,-4.9162,0,0,0,0,0,-4.8939,-4.8991,-4.9017,-4.9093,-4.911,-4.9121,-4.9149,-4.9145,-4.9177,-4.919,-4.9209,-4.9241,-4.9289,-4.9321,-4.9367,-4.946,-4.9466,-4.9502,-4.9513,-4.9523,-4.9531,-4.958,-4.9595,-4.9429,-4.9429,-4.9429,0,0,-4.8982,-4.9007,-4.9039,-4.9103,-4.9127,-4.9179,-4.9132,-4.9189,-4.9227,-4.9199,-4.9272,-4.9288,-4.9324,-4.9409,-4.9447,-4.9424,-4.9579,-4.9532,-4.954,-4.9543,-4.9589,-4.9605,-4.9619,-4.9435,-4.9434,-4.9433,0,0,-4.9086,-4.9111,-4.9176,-4.9202,-4.924,-4.9247,-4.9263,-4.9296,-4.9305,-4.9379,-4.9358,-4.9405,-4.9488,-4.9514,-4.9538,-4.9655,-4.9635,-4.9671,-4.9729,-4.9777,-4.979,-4.9802,-4.9841,-4.9855,-4.968,-4.968,-4.968,0,-4.9133,-4.9211,-4.9211,-4.927,-4.9298,-4.9277,-4.9342,-4.9367,-4.9418,-4.9437,-4.9412,-4.9516,-4.9539,-4.9629,-4.9658,-4.968,-4.9696,-4.9664,-4.9789,-4.98,-4.9811,-4.9848,-4.9863,-4.9684,-4.9683,-4.9683,-4.9683,0,-4.9267,-4.9322,-4.937,-4.942,-4.9454,-4.9516,-4.9524,-4.9559,-4.9554,-4.9564,-4.9639,-4.9667,-4.9717,-4.9739,-4.9734,-4.9829,-4.9813,-4.9789,-4.9741,-4.983,-4.9865,-4.9879,-4.9689,-4.9688,-4.9687,-4.9686,0,0,-4.9397,-4.9448,-4.9466,-4.9488,-4.9529,-4.9571,-4.9633,-4.9683,-4.9712,-4.9749,-4.9799,-4.9872,-4.985,-4.9877,-4.9876,-4.9918,-5.0006,-4.9888,-4.9889,-4.9906,-5.011,-5.0125,-5.0142,-4.9996,-4.9999,-5.0001,-5.0106,0,-4.9501,-4.9608,-4.961,-4.9708,-4.9758,-4.974,-4.9794,-4.9825,-4.9837,-4.9881,-4.9895,-4.9945,-4.9914,-4.993,-4.9972,-4.9987,-5.0046,-4.998,-5.004,-5.0042,-5.0026,-5.016,-5.0176,-5.0274,-5.012,-5.0122,-5.0124,0,-4.9635,-4.9677,-4.9779,-4.9814,-4.9835,-4.9883,-4.9929,-4.9972,-5.0008,-5.0013,-5.0046,-5.0038,-5.0101,-5.0055,-5.014,-5.0095,-5.0121,-5.0132,-5.0136,-5.0138,-5.0085,-5.0162,-5.0305,-5.0318,-5.0146,-5.0144,-5.0143,0,-4.9716,-4.9798,-4.9869,-4.989,-4.9933,-4.9966,-4.9986,-5.0019,-5.0049,-5.009,-5.0109,-5.0158,-5.0183,-5.022,-5.0226,-5.0192,-5.0311,-5.0266,-5.0316,-5.0315,-5.0337,-5.0334,-5.0482,-5.0361,-5.0361,-5.0361,-5.036,0,-4.9828,-4.9891,-4.9906,-4.9949,-5.0019,-5.0023,-5.0092,-5.0109,-5.0139,-5.0185,-5.0175,-5.0218,-5.0225,-5.0271,-5.0276,-5.0345,-5.0357,-5.0363,-5.0362,-5.0361,-5.036,-5.0374,-5.0366,-5.0365,-5.0364,-5.0363,-5.0362,0,-4.9928,-4.9941,-5.0017,-5.0053,-5.0063,-5.0113,-5.0143,-5.0184,-5.0197,-5.0256,-5.027,-5.0289,-5.0342,-5.0353,-5.0416,-5.042,-5.05,-5.0496,-5.0488,-5.0486,-5.0533,-5.0527,-5.0692,-5.0713,-5.0582,-5.0583,-5.0584,0,-4.9996,-5.0044,-5.0085,-5.0116,-5.0137,-5.0187,-5.0217,-5.0224,-5.0256,-5.0301,-5.0337,-5.039,-5.0431,-5.0518,-5.0537,-5.0585,-5.0579,-5.0634,-5.0586,-5.0583,-5.0575,-5.057,-5.0574,-5.0641,-5.0642,-5.0643,-5.0644,0,-5.0116,-5.0121,-5.0165,-5.0213,-5.0251,-5.0288,-5.0324,-5.035,-5.0361,-5.0399,-5.0453,-5.0486,-5.0551,-5.0602,-5.0651,-5.0671,-5.0659,-5.066,-5.0674,-5.067,-5.0662,-5.0664,-5.0508,-5.0655,-5.0654,-5.0653,-5.0653,-5.0652,-5.02,-5.0241,-5.0276,-5.0327,-5.0355,-5.0389,-5.0429,-5.0448,-5.0493,-5.0546,-5.0548,-5.0607,-5.0643,-5.0707,-5.0731,-5.0777,-5.0759,-5.0779,-5.0784,-5.0787,-5.079,-5.0659,-5.0786,-5.0786,-5.0786,-5.0786,-5.0785,0,-5.0316,-5.0338,-5.0385,-5.0436,-5.0475,-5.0464,-5.0503,-5.0537,-5.0589,-5.0624,-5.0665,-5.0728,-5.0778,-5.0803,-5.0853,-5.0885,-5.0881,-5.0898,-5.0893,-5.0897,-5.0804,-5.0786,-5.09,-5.09,-5.09,-5.09,-5.09,-5.09,-5.038,-5.0449,-5.0458,-5.054,-5.0563,-5.062,-5.0643,-5.0675,-5.0702,-5.0772,-5.0814,-5.0831,-5.0861,-5.0914,-5.0959,-5.0966,-5.0983,-5.1001,-5.1004,-5.0916,-5.0904,-5.0893,-5.0875,-5.1006,-5.1006,-5.1093,-5.1094,-5.1094]},{"header":{"parameterUnit":"m.s-1","parameterCategory":1,"la1":30.2991,"la2":30.254,"lo1":-89.0895,"lo2":-89.0444,"dy":0.0017,"dx":0.0017,"nx":28,"ny":28,"refTime":"2024-06-15T09:00:00:Z","depth":0,"parameterNumber":3,"parameterNumberName":"V-component_of_WINDS"},"data":[0,0,0,0,0,0,0,0,0,0,0,0,0,0,0,0,0,0,0,0,0,0,0,0,0,0,0,0,0,0,0,0,0,0,0,0,0,0,0,0,0,0,0,0,0,0,0,0,0,0,0,0,0,0,0,0,0,0,4.992,4.9918,0,4.973,4.9728,4.9726,4.9543,4.954,4.9538,4.9536,4.9333,4.933,4.9326,0,0,0,0,0,0,0,0,0,0,0,0,0,5.0117,5.0114,4.992,4.9917,4.9915,4.973,4.9728,4.9725,4.9543,4.954,4.9538,4.9535,4.9334,4.933,4.9326,0,0,0,0,0,0,0,0,0,0,0,0,0,4.999,5.0113,4.992,4.9802,4.979,4.9731,4.9727,4.9724,4.9544,4.954,4.9537,4.9534,4.9335,4.933,4.9325,4.9365,0,0,4.9311,4.9308,0,0,0,0,0,0,0,0,4.9997,4.9982,4.9822,4.981,4.9796,4.9657,4.9722,4.9603,4.9545,4.9637,4.9536,4.9532,4.9443,4.9429,4.94,4.9355,4.9347,4.931,4.9307,4.9305,4.9304,0,0,0,0,0,0,0,5.0006,4.9989,4.9844,4.982,4.9804,4.9756,4.9734,4.9699,4.9561,4.9629,4.9615,4.9595,4.9435,4.9406,4.9394,4.9344,4.931,4.9306,4.9303,4.9301,4.9318,4.9322,0,0,0,0,0,0,5.0034,4.9998,4.985,4.9839,4.989,4.9756,4.9731,4.9705,4.9561,4.9536,4.9599,4.9588,4.9416,4.94,4.9387,4.942,4.9305,4.9301,4.9298,4.9315,4.9319,4.9323,0,0,0,0,0,0,5.0039,5.0023,4.9858,4.9915,4.989,4.9756,4.9728,4.9703,4.9673,4.9539,4.9512,4.9595,4.9412,4.9393,4.9372,4.9411,4.9298,4.9294,4.9311,4.9316,4.9321,4.9491,0,0,0,0,0,0,5.0045,5.0025,5.0041,4.9916,4.9888,4.9849,4.973,4.9702,4.9666,4.965,4.9528,4.9504,4.9408,4.938,4.9367,4.9402,4.929,4.9307,4.9313,4.9319,4.9481,4.9501,4.9518,0,0,0,0,0,5.0053,5.0095,5.0043,5.0026,4.9905,4.9852,4.9835,4.9726,4.9671,4.9683,4.9597,4.9508,4.941,4.9379,4.9363,4.9397,4.9304,4.9311,4.9319,4.9473,4.9497,4.9518,0,0,0,0,0,0,5.0224,5.0076,5.0017,5.002,4.9951,4.9821,4.9834,4.9756,4.9698,4.9685,4.9551,4.9524,4.9517,4.9455,4.9424,4.9427,4.9344,4.9349,4.9467,4.9489,4.9507,4.952,4.9286,0,0,0,0,0,5.0263,5.0235,5.0106,5.0122,5.009,4.9969,4.9942,4.9865,4.9786,4.9754,4.9666,4.959,4.9542,4.9513,4.9461,4.9473,4.9441,4.9488,4.9507,4.9523,4.9527,4.9526,4.9544,4.9348,4.9348,4.9348,0,0,5.0341,5.0257,5.0247,5.0154,5.0091,5.0062,4.9945,4.992,4.9896,4.9749,4.9723,4.9657,4.9563,4.9558,4.9551,4.9506,4.9575,4.9533,4.9547,4.9541,4.9536,4.9554,4.9571,4.9353,4.9352,4.9351,0,0,5.0468,5.0404,5.0408,5.0348,5.0255,5.0175,5.0177,5.0059,5.001,4.9983,4.9872,4.9841,4.9761,4.9698,4.9656,4.9762,4.9677,4.9749,4.9845,4.9845,4.986,4.9873,4.9907,4.9922,4.9755,4.9755,4.9756,0,5.0576,5.0531,5.042,5.0401,5.0362,5.0232,5.0234,5.018,5.0074,5.0049,5.0002,4.9899,4.9827,4.9804,4.983,4.9802,4.9796,4.976,4.9868,4.988,4.989,4.9921,4.9935,4.9764,4.9763,4.9762,4.9762,0,5.0667,5.0637,5.0652,5.0556,5.0518,5.0511,5.0395,5.0371,5.0298,5.0222,5.0194,5.0104,5.0031,5.0021,4.9948,4.9987,4.9962,4.9894,4.9807,4.992,4.9946,4.9958,4.9777,4.9774,4.9771,4.9769,0,0,5.0892,5.0737,5.0743,5.0698,5.0587,5.056,5.0546,5.0477,5.0457,5.039,5.0371,5.0308,5.0244,5.0197,5.0116,5.0117,5.0203,5.0047,5.0043,5.0076,5.0236,5.0286,5.0301,5.0148,5.015,5.0151,5.0243,0,5.0997,5.0966,5.0866,5.0863,5.0833,5.071,5.0697,5.0626,5.0555,5.0516,5.0437,5.0393,5.0314,5.0284,5.028,5.0194,5.0232,5.0186,5.0125,5.0124,5.0148,5.0316,5.0368,5.0458,5.0253,5.0254,5.0256,0,5.1115,5.1058,5.1053,5.0943,5.0926,5.0917,5.0845,5.0812,5.0728,5.0676,5.0625,5.0536,5.051,5.0435,5.0396,5.0366,5.0336,5.029,5.0291,5.0277,5.0194,5.0302,5.0485,5.0497,5.0272,5.027,5.0269,0,5.1276,5.1198,5.1184,5.1149,5.1021,5.1017,5.0963,5.0876,5.0841,5.0778,5.0753,5.0689,5.0652,5.0602,5.0497,5.0452,5.0468,5.0384,5.0421,5.0423,5.0426,5.0426,5.0602,5.0414,5.0414,5.0414,5.0414,0,5.1401,5.1402,5.1254,5.1246,5.1242,5.1127,5.1126,5.106,5.0984,5.0958,5.0849,5.0826,5.0691,5.0651,5.0569,5.0548,5.0533,5.0487,5.0464,5.0494,5.05,5.0469,5.0458,5.0417,5.0417,5.0416,5.0415,0,5.1578,5.148,5.1456,5.1339,5.1309,5.1311,5.1208,5.1194,5.1118,5.1086,5.1072,5.0951,5.0899,5.0791,5.0709,5.0654,5.065,5.0613,5.0679,5.0664,5.0706,5.0702,5.0864,5.0878,5.0687,5.0689,5.0691,0,5.1663,5.1661,5.1544,5.152,5.1471,5.1434,5.1399,5.1285,5.1252,5.1157,5.1154,5.1094,5.104,5.0963,5.0865,5.0802,5.0759,5.0821,5.0748,5.0778,5.0755,5.0755,5.0752,5.0835,5.0838,5.084,5.0842,0,5.1822,5.1774,5.1729,5.1667,5.1628,5.1573,5.1512,5.1498,5.1369,5.1337,5.1285,5.1244,5.1161,5.1102,5.1024,5.0964,5.0881,5.0866,5.087,5.0899,5.0936,5.0913,5.0719,5.0862,5.086,5.0858,5.0857,5.0856,5.1952,5.1944,5.1861,5.1813,5.1756,5.1702,5.1682,5.1605,5.156,5.1486,5.1422,5.1374,5.1289,5.1176,5.1123,5.1082,5.104,5.1048,5.1049,5.1051,5.1063,5.0948,5.1067,5.1067,5.1066,5.1065,5.1065,0,5.2103,5.2044,5.2002,5.1921,5.1883,5.1813,5.1741,5.1713,5.1674,5.1603,5.1553,5.1492,5.1434,5.1334,5.1267,5.1254,5.1213,5.124,5.1237,5.1224,5.1105,5.1106,5.1273,5.1273,5.1273,5.1273,5.1273,5.1273,5.2177,5.2159,5.2101,5.2053,5.1992,5.1947,5.1912,5.186,5.1803,5.1741,5.1693,5.163,5.1546,5.1472,5.1416,5.1387,5.1366,5.1404,5.1363,5.1252,5.1233,5.1214,5.1214,5.1401,5.1401,5.1484,5.1485,5.1486]}]]